Regional Weather Roundup
Issued by NWS

Home | Current Version | Previous Version | Graphics & Text | Print | Product List | Glossary On
Versions: 1 2 3 4 5 6 7 8 9 10 11 12 13 14 15 16 17 18 19 20 21 22 23 24 25 26 27 28 29 30 31 32 33 34 35 36 37 38 39 40 41 42 43 44 45 46 47 48 49 50
000
ASUS43 KBIS 210120
RWRND

NORTH DAKOTA REGIONAL WEATHER ROUNDUP
NATIONAL WEATHER SERVICE BISMARCK ND
800 PM CDT WED AUG 20 2014

NOTE: "FAIR" INDICATES FEW OR NO CLOUDS BELOW 12,000 FEET WITH NO
SIGNIFICANT WEATHER AND/OR OBSTRUCTIONS TO VISIBILITY.


NDZ001>003-009>011-017-210200-
NORTHWEST NORTH DAKOTA

CITY           SKY/WX    TMP DP  RH WIND       PRES   REMARKS
WILLISTON      MOCLDY    72  62  71 SE3       29.74S
MINOT          CLOUDY    68  64  87 E9        29.73S
MINOT AFB      CLOUDY    70  69  96 E8        29.74R
$$

NDZ018>021-031>035-040>046-210200-
SOUTHWEST NORTH DAKOTA

CITY           SKY/WX    TMP DP  RH WIND       PRES   REMARKS
BISMARCK       LGT RAIN  69  66  90 NW12      29.74R
DICKINSON      MOCLDY    71  63  75 N7        29.75S
GARRISON         N/A     70  68  93 N3        29.73S
HETTINGER ARPT MOCLDY    66  63  90 N9        29.76F
$$

NDZ004>008-012>016-024-026-027-054-210200-
NORTHEAST NORTH DAKOTA

CITY           SKY/WX    TMP DP  RH WIND       PRES   REMARKS
GRAND FORKS    MOCLDY    78  68  71 SE6       29.77S
GRND FRKS AFB  MOCLDY    77  70  78 SE7       29.79R
DEVILS LAKE    CLOUDY    75  66  73 SE13      29.74F
$$

NDZ022-023-025-028>030-036>039-047>053-210200-
SOUTHEAST NORTH DAKOTA

CITY           SKY/WX    TMP DP  RH WIND       PRES   REMARKS
FARGO          MOCLDY    78  68  71 E8        29.77R
JAMESTOWN      CLOUDY    76  68  76 E9        29.76R
$$




USA.gov is the U.S. government's official web portal to all federal, state and local government web resources and services.